Location: ??????
(56.0120°N, 39.1740°E)
Time: 20:55:31
(UTC+00:00)

USA 281 - Pass Details

Date: 14 April 2026
Orbit: 1079 x 1080 km, 106.0° (Epoch: 5 January)

Event Time Altitude Azimuth Distance (km) Brightness Sun altitude
Exits shadow 21:54:57 24° 130° (SE) 2,089 4.4 -24.0°
Maximum altitude 21:59:09 69° 53° (NE) 1,156 3.4 -23.9°
Drops below altitude 10° 22:05:41 10° 332° (NNW) 2,934 6.2 -23.7°
Sets 22:08:13 0° 330° (NNW) 3,893 6.9 -23.7°
